NOAA 16 DEB, 41372

Orbit data source: Space-Track

NOAA 16 DEB, 41372 is space debris in SSO originally from a launch on Thu, 21 Sep 2000 UTC launched from the Air Force Western Test Range (AFWTR). Debris objects in space refer to the collection of defunct objects orbiting the Earth. Examples of debris include non-operational satellites, rocket bodies, and fragments generated from explosions, collisions, or faulty payload assembly.

Loading next visibility...
Identifier
41372, 2000-055JR
Orbit
SSO
Country
Flag of USUS
Related business
Manufacturer
Unknown
Mission
Spacecraft
Bus & Motor
Unknown
Mass
Unknown
Launch date (UTC)
2000-09-21 (25 years ago)
Launch vehicle
Unknown
Launch site
Air Force Western Test Range (AFWTR)
Object type
Payload
Rocket body
Debris
Shape & HBR
Unknown shape, 0.1 m
Radar Cross Section
Small (<0.1 m²)

Expand to show TLE details & history
Last TLE update: 19 hours ago

TLE from 19 hours ago
0 NOAA 16 DEB
1 41372U 00055JR  25290.21184058  .00024155  00000-0  47016-2 0  9991
2 41372  98.9741 203.8120 0052307 352.2390   7.7994 14.62175182510496
Epoch: 2025-10-17T05:05Z
TLE epoch observation values (Epoch: 2025-10-17T05:05:03.026Z)
Latitude
0.00002°
Longitude
101.58893°
Altitude
652.509 km
Speed
7.551 km/s
True Right ascension
13h 35m 14s
True Declination
0° 00' 00"
Sunlit
Object was in daylight at epoch
Visualization orbit readout
Latitude
Unknown
Longitude
Unknown
Altitude
Unknown
Speed
Unknown
Apparent Right ascension
Unknown
Apparent Declination
Unknown
Sunlit
N/A
Visualization observer readout
Local Sidereal Time
19:08:56
Azimuth
Unknown
Elevation
Unknown
Doppler factor
Unknown
Orbital elements
Apogee altitude
720.211 km
Perigee altitude
646.339 km
Semi-major axis
7,061.412 km
Eccentricity
0.00523
Inclination
98.9741°
RAAN
203.812°
Arg. of periapsis
352.239°
True anomaly
7.88127°
Mean anomaly
7.7994°
Eccentric anomaly
7.84028°
Mean motion
3.65768 °/min
Orbital period
98.42 mins
BSTAR
0.0047016
Loading maneuver chart data...
Computing Atmospheric mass density...
Loading historical data...
Loading historical data...
Loading historical data...
Loading historical data...
Loading historical data...
Loading historical data...
Loading historical data...

Documentation

Showing up to 5 results
|